Погода в Хильдене

Германия     51°10′10″N   6°55′51″E
темп.,
°C
ветер,
м/с
пор.,
м/с
влажн.,
%
обл.,
%
осадки,
мм/ч
давл.,
гПа
погр.,
м
13 июня, вс
вс1323:00+13с38715 0.0 1025435
02:00+10с24865 0.0 1026155
05:00+9с12935 0.0 1026100
08:00+12ссв13740 0.0 1027484
11:00+18с22430 0.0 10281114
14:00+22с23320 0.0 10271414
17:00+23с22300 0.0 10261494
20:00+21св34450 0.0 1025524
14 июня, пн
пн1423:00+15всв23680 0.0 102676
02:00+13юв23703 0.0 102563
05:00+12юв23785 0.0 102476
08:00+17ююв25605 0.0 1023269
11:00+22ю33405 0.0 1022886
14:00+26юз33300 0.0 10201406
17:00+27зсз33310 0.0 10191697
20:00+25зсз234260 0.0 1018853
15 июня, вт
вт1523:00+19св1263100 0.0 101935
02:00+16ссв2483100 0.0 1020114
05:00+15ссв2492100 0.0 1020115
08:00+17ссв348439 0.0 1020365
11:00+22ссв225721 0.0 10201001
14:00+22ссв435862 0.0 10201082
17:00+24ссв425099 0.0 10191504
20:00+21св4463100 0.0 1018696
16 июня, ср
ср1623:00+17всв3782100 0.0 1019214
02:00+16в238698 0.0 101882
05:00+16в228963 0.0 101733
08:00+20юв127047 0.0 1016272
11:00+26ююв23505 0.0 10151159
14:00+29ююз243663 0.0 10142539
17:00+30юв233685 0.0 10131845
20:00+25ссв235591 0.0 1013185
17 июня, чт
чт1723:00+23вюв396138 0.0 1013353
02:00+21юв3106696 0.0 1012227
05:00+20юв3968100 0.0 1012187
08:00+23юв41159100 0.0 1012435
11:00+29ююв57413 0.0 1010955
14:00+32ююв56326 0.0 10092218
17:00+33ю45320 0.0 10092741
20:00+28зюз245486 0.0 1009489